RH
29 29 30 32 33 34 35 34 35 36 37 36 36 37 37 35 36 35 34 33 32 31 32 33 33 33 33 33 34 35 37 37 37 36 35 33 32 32 32 33 35 37
29 27 28 30 32 33 33 31 31 32 35 34 34 35 35 37 40 41 40 39 37 34 33 33 33 33 33 33 32 32 34 34 33 33 32 31 31 32 32 33 35 37
31 28 26 27 28 29 31 32 30 30 33 36 36 36 37 39 41 43 44 44 42 39 36 34 33 32 32 31 31 32 32 32 32 32 32 32 32 33 35 36 37 40
34 33 30 28 26 26 30 33 32 31 33 37 38 39 40 40 41 41 42 42 42 42 40 37 33 31 31 31 31 31 31 32 33 33 34 35 34 34 36 38 38 39
36 37 38 35 31 29 30 30 30 32 34 36 37 38 40 41 41 40 39 39 38 39 40 39 36 34 32 32 32 32 32 34 35 35 35 36 36 37 37 38 38 39
38 39 42 43 40 37 36 33 31 32 34 35 35 36 37 37 38 39 39 38 37 37 38 37 37 37 36 35 34 34 34 35 36 36 37 39 40 41 41 39 39 41
42 42 43 46 47 46 44 42 39 37 37 36 35 35 36 36 36 37 38 38 37 37 37 37 36 36 36 36 35 34 34 35 37 37 40 43 44 44 43 41 40 41
49 48 46 45 47 48 47 46 45 44 43 41 40 39 38 37 36 36 36 37 36 37 37 37 35 34 35 36 37 36 35 35 36 38 42 44 44 42 41 40 40 40
56 54 52 50 50 49 48 48 48 48 47 46 47 48 47 45 42 40 39 39 39 39 39 38 37 36 36 36 37 38 38 38 39 39 42 44 45 44 44 43 42 41
63 62 62 63 62 59 59 59 60 60 59 53 50 49 50 49 47 46 44 43 43 44 43 41 40 39 38 36 36 37 38 39 40 40 42 45 46 46 46 45 44 45
67 65 65 67 67 67 68 67 65 66 68 66 61 57 54 51 51 51 49 45 44 45 45 44 43 42 40 38 37 37 37 38 39 39 40 42 44 44 45 46 47 48
66 62 62 65 67 68 70 70 68 69 71 70 68 68 67 66 64 62 60 55 51 49 46 46 46 43 42 41 39 39 39 39 40 40 41 42 43 42 43 46 49 50
68 63 61 63 65 67 70 72 72 72 72 69 66 67 69 70 69 68 69 70 67 62 55 49 49 48 45 43 42 41 41 41 41 41 42 42 44 47 52 57 59 58
70 66 61 63 68 72 73 73 70 70 72 71 70 69 68 67 67 65 66 69 71 71 66 56 51 51 50 48 47 47 46 46 46 45 45 43 44 50 59 64 65 64
68 63 60 64 74 78 75 72 68 69 73 72 72 75 75 72 70 67 65 67 70 72 73 66 56 50 51 52 52 53 53 53 53 52 51 49 48 51 58 62 63 64
68 65 64 67 74 78 75 70 65 63 67 68 69 74 76 73 72 69 64 65 68 69 74 76 65 52 49 52 54 57 59 59 59 58 57 56 57 59 62 63 61 61
72 69 68 68 69 71 71 69 64 60 60 62 63 68 71 69 69 69 66 64 66 67 71 77 71 57 49 49 51 55 58 61 63 63 61 61 63 65 66 65 62 60
81 76 72 69 67 66 65 64 63 61 61 62 61 64 68 68 68 72 72 70 69 68 66 68 66 58 51 50 51 53 54 58 64 66 65 61 60 61 64 68 67 62
84 82 79 76 73 70 69 68 67 66 65 65 65 66 67 67 68 72 74 71 69 69 67 63 58 57 57 55 53 53 54 56 61 67 68 66 62 59 61 65 66 62
80 80 80 84 83 79 77 75 72 70 68 67 68 67 66 65 66 70 71 70 69 71 71 63 56 56 59 56 54 56 58 59 60 62 64 65 65 65 64 64 63 61
82 81 81 86 89 88 85 81 77 74 71 68 67 66 65 65 66 69 71 71 71 70 67 63 59 59 60 58 57 60 63 66 66 65 64 64 65 67 66 64 62 61
84 86 85 86 89 89 87 85 83 81 78 75 72 68 67 66 66 69 70 72 73 70 66 66 69 69 67 65 66 68 70 70 69 68 67 67 65 64 64 64 65 64
79 82 83 83 84 86 88 88 88 85 82 81 78 74 71 68 68 69 71 74 75 73 71 72 74 74 73 72 72 73 75 75 74 71 70 69 69 69 68 68 69 69
76 76 79 80 80 83 85 86 84 81 78 77 76 75 74 72 71 70 70 72 74 74 75 76 77 76 77 76 74 74 76 79 79 78 75 73 73 74 74 74 74 75
78 77 78 79 80 79 79 79 78 74 71 69 68 69 70 72 75 75 73 72 74 77 78 78 78 79 79 78 75 74 76 79 81 83 83 79 76 77 79 79 79 80
81 78 74 73 74 74 74 74 74 72 69 67 67 67 68 70 74 77 76 73 75 78 79 78 79 80 82 84 85 82 82 82 82 84 85 82 79 80 80 81 81 82